Home   Weather   Londonderry   Past weeks

Flag for United Kingdom Past Weather in Londonderry, Northern Ireland, United Kingdom — Yesterday and Last 2 Weeks

55 °F

Passing clouds.

Feels Like: 51 °F
Forecast: 48 / 54 °F
Wind: 21 mph from Southwest

Location: Eglinton / Londonderry

Current Time: Oct 27, 2016 at 7:52:27 AM

Latest Report: Oct 27, 2016 at 7:20 AM

Visibility: N/A

Pressure: 30.15 "Hg

Humidity: 88%

Dew Point: 52 °F

Location of LondonderryLocation

Past Weather in Londonderry — Graph


Londonderry Temperature Yesterday

Maximum temperature yesterday: 59 °F (at 1:50 PM)
Minimum temperature yesterday: 52 °F (at 6:20 AM)
Average temperature yesterday: 56 °F

High & Low Weather Summary for the Past Weeks

High59 °F (Oct 12, 2:20 PM)100% (Oct 15, 2:20 PM)30.33 "Hg (Oct 15, 2:20 PM)
Low32 °F (Oct 25, 6:50 AM)59% (Oct 12, 4:20 PM)29.42 "Hg (Oct 16, 1:50 PM)
Average52 °F84%30.01 "Hg
* Reported Oct 12 6:20 AM — Oct 26 6:20 PM, Londonderry, Weather by CustomWeather, © 2016

Note: Actual official high and low records may vary slightly from our data, if they occured in-between our weather recording intervals... More about our weather records


Londonderry Weather History for the Previous 24 Hours

Scroll right to see more
Time TempWeatherWind HumidityBarometerVisibility
6:20 PM
Wed, Oct 26
55 °FPassing clouds.12 mph77%30.24 "HgN/A
5:50 PM55 °FPartly sunny.9 mph82%30.24 "HgN/A
5:20 PM54 °FPartly sunny.13 mph82%30.21 "HgN/A
4:50 PM57 °FBroken clouds.6 mph77%30.21 "HgN/A
4:20 PM55 °FBroken clouds.14 mph82%30.21 "HgN/A
3:50 PM55 °FSprinkles. Broken clouds.20 mph88%30.18 "HgN/A
3:20 PM57 °FSprinkles. Partly sunny.15 mph82%30.18 "HgN/A
2:50 PM57 °FSprinkles. Partly sunny.20 mph88%30.18 "HgN/A
2:20 PM59 °FScattered showers. Partly sunny.18 mph72%30.15 "HgN/A
1:50 PM59 °FPartly sunny.16 mph77%30.15 "HgN/A
1:20 PM57 °FScattered clouds.15 mph88%30.18 "HgN/A
12:50 PM57 °FPartly sunny.14 mph82%30.18 "HgN/A
12:20 PM57 °FPartly sunny.15 mph82%30.15 "HgN/A
11:50 AM57 °FBroken clouds.15 mph88%30.15 "HgN/A
11:20 AM55 °FLight rain. Partly sunny.14 mph94%30.15 "Hg5 mi
10:50 AM55 °FLight rain. Partly sunny.15 mph94%30.12 "Hg4 mi
10:20 AM55 °FLight rain. Partly sunny.14 mph94%30.12 "Hg6 mi
9:50 AM55 °FDrizzle. Partly sunny.16 mph88%30.12 "HgN/A
9:20 AM55 °FBroken clouds.17 mph88%30.09 "HgN/A
8:50 AM54 °FBroken clouds.16 mph88%30.09 "HgN/A
8:20 AM54 °FPassing clouds.17 mph88%30.09 "HgN/A
7:50 AM54 °FPassing clouds.18 mph88%30.09 "HgN/A
7:20 AM54 °FPassing clouds.18 mph88%30.09 "HgN/A
Weather by CustomWeather, © 2016

See weather overviewHow to use our weather pages